Location: Robert Brownlee Observatory
(34.2308°N, 117.2089°W)
Time: 06:27:19
(UTC-07:00)

Cosmos 1943 - Visible Passes

Search period start: 16 September 2014 00:00
Search period end: 26 September 2014 00:00
Orbit: 835 x 850 km, 71.0° (Epoch: 15 September)

Date Brightness Start Highest point End Pass type
(mag) Time Alt. Az. Time Alt. Az. Time Alt. Az.
16 Sep 3.5 05:09:04 10° S 05:14:41 71° ESE 05:20:19 10° NNE visible
17 Sep 3.5 04:54:37 12° S 04:59:51 67° ESE 05:05:27 10° NNE visible
18 Sep 3.6 04:41:21 22° S 04:45:01 63° ESE 04:50:36 10° NNE visible
19 Sep 3.6 04:27:56 35° S 04:30:11 60° ESE 04:35:44 10° NNE visible
20 Sep 3.7 04:14:22 49° SE 04:15:21 56° ESE 04:20:52 10° NNE visible
20 Sep 4.7 05:56:15 11° W 05:59:45 18° WNW 06:03:33 10° NNW visible
21 Sep 3.8 04:00:41 53° E 04:00:41 53° E 04:06:01 10° NNE visible
21 Sep 4.6 05:42:34 15° W 05:44:53 19° WNW 05:48:49 10° NNW visible
22 Sep 4.2 03:46:54 43° ENE 03:46:54 43° ENE 03:51:08 10° NNE visible
22 Sep 4.5 05:28:46 19° WNW 05:30:01 20° WNW 05:34:05 10° NNW visible
23 Sep 4.7 03:33:01 32° NE 03:33:01 32° NE 03:36:16 10° NNE visible
23 Sep 4.5 05:14:53 21° WNW 05:15:08 21° WNW 05:19:20 10° N visible
24 Sep 5.2 03:19:04 24° NE 03:19:04 24° NE 03:21:24 10° NE visible
24 Sep 4.6 05:00:56 22° NW 05:00:56 22° NW 05:04:35 10° N visible
25 Sep 5.6 03:05:03 18° NE 03:05:03 18° NE 03:06:31 10° NE visible
25 Sep 4.7 04:46:54 21° NW 04:46:54 21° NW 04:49:50 10° N visible
